Regional Weather Roundup
Issued by NWS

Home | Current Version | Previous Version | Graphics & Text | Print | Product List | Glossary On
Versions: 1 2 3 4 5 6 7 8 9 10 11 12 13 14 15 16 17 18 19 20 21 22 23 24 25 26 27 28 29 30 31 32 33 34 35 36 37 38 39 40 41 42 43 44 45 46 47 48 49 50
000
ASUS43 KBIS 271601
RWRND

NORTH DAKOTA REGIONAL WEATHER ROUNDUP
NATIONAL WEATHER SERVICE BISMARCK ND
1000 AM CST FRI FEB 27 2015

NOTE: "FAIR" INDICATES FEW OR NO CLOUDS BELOW 12,000 FEET WITH NO
SIGNIFICANT WEATHER AND/OR OBSTRUCTIONS TO VISIBILITY.


NDZ001>003-009>011-017-271700-
NORTHWEST NORTH DAKOTA

CITY           SKY/WX    TMP DP  RH WIND       PRES   REMARKS
WILLISTON      SUNNY      2  -5  72 S6        30.25F WCI  -9
MINOT          SUNNY      2  -7  66 SW12      30.30F WCI -15
MINOT AFB      SUNNY     -1  -7  74 SW6       30.30F WCI -12
$$

NDZ018>021-031>035-040>046-271700-
SOUTHWEST NORTH DAKOTA

CITY           SKY/WX    TMP DP  RH WIND       PRES   REMARKS
BISMARCK       SUNNY      1  -5  75 VRB5      30.39F WCI  -9
DICKINSON      SUNNY      9  -1  64 S17       30.19F WCI  -9
GARRISON         N/A     -3  -6  87 S3        30.32S
HETTINGER ARPT SUNNY      8   1  73 S10       30.23F WCI  -6
$$

NDZ004>008-012>016-024-026-027-054-271700-
NORTHEAST NORTH DAKOTA

CITY           SKY/WX    TMP DP  RH WIND       PRES   REMARKS
GRAND FORKS    MOSUNNY    2  -6  69 SW6       30.45R WCI  -9
GRND FRKS AFB  SUNNY      6  -7  55 NW8       30.43S WCI  -7
DEVILS LAKE    SUNNY    N/A N/A N/A MISG        N/A
$$

NDZ022-023-025-028>030-036>039-047>053-271700-
SOUTHEAST NORTH DAKOTA

CITY           SKY/WX    TMP DP  RH WIND       PRES   REMARKS
FARGO          SUNNY      0  -9  65 SW7       30.49S WCI -13
JAMESTOWN      SUNNY      1  -7  68 SW8       30.40F WCI -13
$$




USA.gov is the U.S. government's official web portal to all federal, state and local government web resources and services.